sat.trackr.live / text

‹ back to catalog

ONEWEB-0231

NORAD 48782 · 2021-045R

PAYLOAD ACTIVE UNKNOWN

§ Identity

Operator
Country
UK
Launch date
2021-05-28
Launch site
VOSTO
Launch vehicle
Mass (kg)
RCS (m²)

Purposes: comms

External: N2YO · Heavens-Above · Gunter

§ Orbital elements

Epoch: 2026-05-24T18:34:27.914880Z

Period
109.46 min
Inclination
87.8992°
Eccentricity
0.0001647
Mean motion
13.15546463 rev/d
Perigee alt
1,200.5 km
Apogee alt
1,203.0 km
Semi-major
7,579.9 km
B*
9.1789e-5
RAAN
263.8614°
Arg perigee
97.7627°
Mean anomaly
262.3691°
Rev number
24,126

§ Raw data

ONEWEB-02311 48782U 21045R   26144.77393420  .00000047  00000+0  91789-4 0  99912 48782  87.8992 263.8614 0001647  97.7627 262.3691 13.15546463241262

JSON: /api/v1/satellites/48782 · /tle

For live sub-satellite position, see the globe view (requires WebGL).

§ Visibility from observer

Set your observer location to see the next 7 days of passes ≥ 10°. The values pass through the URL so the page stays shareable.

No JS? Fill the form by hand. The geolocation button needs JavaScript.